Weather History for Duesseldorf, Germany

Change the Weather History Date:

Saturday, August 3, 2013

  Actual Average Record
Temperature  
Mean Temperature 74 °F -  
Max Temperature 81 °F 72 °F - ()
Min Temperature 66 °F 54 °F - ()
Cooling Degree Days 10    
Growing Degree Days 24 (Base 50)    
Moisture  
Dew Point 57 °F    
Average Humidity 53    
Maximum Humidity 85    
Minimum Humidity 22    
Precipitation  
Precipitation 0.00 in - - ()
Sea Level Pressure  
Sea Level Pressure 30.02 in    
Wind  
Wind Speed 10 mph ()    
Max Wind Speed 20 mph    
Max Gust Speed 29 mph    
Visibility 7.6 miles    
Events Rain    
T = Trace of Precipitation, MM = Missing Value Source: Averaged Metar Reports

Daily Weather History Graph

Daily Weather History Graph

Search for Another Location

Airport:

Trip Planner

Search our weather history database for the weather conditions in past years. The results will help you decide how hot, cold, wet, or windy it might be!

Date:

Astronomy

Aug. 03, 2013 Rise Set
Actual Time 6:00 AM CEST 9:16 PM CEST
Civil Twilight 5:20 AM CEST 9:56 PM CEST
Nautical Twilight 4:27 AM CEST 10:48 PM CEST
Astronomical Twilight 3:16 AM CEST 11:58 PM CEST
Moon 2:51 AM CEST (8/3) 6:51 PM CEST (8/3)
Length of Visible Light 16h 35m
Length of Day
15h 16m
Waning Crescent, 11% of the Moon is Illuminated
Aug 3
Waning Crescent
Aug 6
New
Aug 14
First Quarter
Aug 21
Full
Aug 28
Last Quarter

Hourly Weather History & Observations

Time (CEST) Temp. Heat Index Dew Point Humidity Pressure Visibility Wind Dir Wind Speed Gust Speed Precip Events Conditions
12:00 AM 83 °F - 54 °F 27% 29.82 in 37 mi SSE 11.2 mph - -   Partly Cloudy
12:20 AM 82.4 °F 82.0 °F 57.2 °F 42% 29.83 in - SSE 11.5 mph - N/A   Clear
12:50 AM 80.6 °F 80.8 °F 57.2 °F 45% 29.83 in - SSE 9.2 mph - N/A   Clear
1:20 AM 80.6 °F 80.8 °F 57.2 °F 45% 29.86 in - SW 11.5 mph - N/A   Clear
1:50 AM 80.6 °F 81.5 °F 60.8 °F 51% 29.86 in - WSW 10.4 mph - N/A   Clear
2:00 AM 79 °F - 60 °F 41% 29.87 in 31 mi WSW 8.9 mph - -   Mostly Cloudy
2:20 AM 77.0 °F - 64.4 °F 65% 29.86 in - West 5.8 mph - N/A   Clear
2:50 AM 77.0 °F - 64.4 °F 65% 29.89 in - West 6.9 mph - N/A   Clear
3:00 AM 75 °F - 65 °F 63% 29.88 in 16 mi West 6.7 mph - -   Mostly Cloudy
3:20 AM 75.2 °F - 64.4 °F 69% 29.89 in - WSW 8.1 mph - N/A   Clear
3:50 AM 73.4 °F - 64.4 °F 73% 29.92 in - WSW 8.1 mph - N/A   Clear
4:00 AM 73 °F - 63 °F 63% 29.93 in 14 mi WSW 6.7 mph - -   Partly Cloudy
4:20 AM 73.4 °F - 62.6 °F 69% 29.92 in - SW 5.8 mph - N/A   Clear
4:50 AM 71.6 °F - 62.6 °F 73% 29.95 in - SW 5.8 mph - N/A   Clear
5:20 AM 71.6 °F - 62.6 °F 73% 29.98 in 6.2 mi SW 11.5 mph - N/A Rain Light Rain Showers
5:50 AM 69.8 °F - 64.4 °F 83% 29.98 in 6.2 mi SSW 8.1 mph - N/A Rain Light Rain Showers
6:00 AM 69 °F - 63 °F 77% 29.99 in 9 mi SSW 6.7 mph - - Rain Light Rain Showers
6:20 AM 69.8 °F - 62.6 °F 78% 29.98 in 6.2 mi South 4.6 mph - N/A Rain Rain
6:50 AM 69.8 °F - 64.4 °F 83% 29.92 in 6.2 mi ESE 10.4 mph - N/A Rain Light Rain
7:00 AM 68 °F - 65 °F 85% 29.93 in 11 mi ESE 11.2 mph - - Rain Light Rain
7:20 AM 69.8 °F - 64.4 °F 83% 29.95 in - South 6.9 mph - N/A   Clear
7:50 AM 69.8 °F - 64.4 °F 83% 29.95 in - South 10.4 mph - N/A   Clear
8:20 AM 71.6 °F - 64.4 °F 78% 29.98 in - South 10.4 mph - N/A   Clear
8:50 AM 71.6 °F - 64.4 °F 78% 29.98 in 6.2 mi SSW 12.7 mph - N/A   Mostly Cloudy
9:00 AM 71 °F - 64 °F 72% 29.99 in 25 mi SSW 13.4 mph - -   Scattered Clouds
9:20 AM 73.4 °F - 62.6 °F 69% 29.98 in 6.2 mi SW 16.1 mph - N/A   Scattered Clouds
9:50 AM 73.4 °F - 64.4 °F 73% 29.98 in 6.2 mi WSW 19.6 mph - N/A   Partly Cloudy
10:00 AM 73 °F - 64 °F 67% 30.00 in 31 mi WSW 17.9 mph - -   Scattered Clouds
10:20 AM 73.4 °F - 64.4 °F 73% 30.01 in 6.2 mi WSW 15.0 mph - N/A   Scattered Clouds
10:50 AM 73.4 °F - 64.4 °F 73% 30.01 in 6.2 mi WSW 16.1 mph - N/A   Mostly Cloudy
11:20 AM 73.4 °F - 62.6 °F 69% 30.04 in 6.2 mi WSW 15.0 mph - N/A   Scattered Clouds
11:50 AM 77.0 °F - 59.0 °F 54% 30.04 in 6.2 mi SW 17.3 mph 28.8 mph N/A   Partly Cloudy
12:00 PM 77 °F - 59 °F 43% 30.05 in 31 mi SW 17.9 mph - -   Scattered Clouds
12:20 PM 77.0 °F - 57.2 °F 50% 30.04 in 6.2 mi WSW 16.1 mph - N/A   Partly Cloudy
12:50 PM 77.0 °F - 59.0 °F 54% 30.06 in 6.2 mi WSW 18.4 mph - N/A   Scattered Clouds
1:00 PM 77 °F - 57 °F 40% 30.06 in 37 mi WSW 17.9 mph - -   Partly Cloudy
1:20 PM 78.8 °F - 53.6 °F 42% 30.06 in 6.2 mi SW 17.3 mph - N/A   Partly Cloudy
1:50 PM 80.6 °F 80.3 °F 53.6 °F 39% 30.06 in - SW 17.3 mph - N/A   Clear
2:00 PM 81 °F - 54 °F 29% 30.07 in 37 mi SW 17.9 mph - -   Scattered Clouds
2:20 PM 78.8 °F - 55.4 °F 44% 30.06 in - WSW 16.1 mph - N/A   Clear
2:50 PM 80.6 °F 80.3 °F 53.6 °F 39% 30.06 in - WSW 18.4 mph - N/A   Clear
3:00 PM 80 °F - 52 °F 27% 30.08 in 37 mi WSW 17.9 mph - -   Scattered Clouds
3:20 PM 78.8 °F - 51.8 °F 39% 30.06 in - WSW 17.3 mph - N/A   Clear
3:50 PM 80.6 °F 80.5 °F 55.4 °F 42% 30.09 in - West 11.5 mph - N/A   Clear
4:00 PM 80 °F - 52 °F 28% 30.09 in 37 mi West 11.2 mph - -   Scattered Clouds
4:20 PM 78.8 °F - 50.0 °F 36% 30.09 in - West 13.8 mph - N/A   Clear
4:50 PM 80.6 °F - 51.8 °F 37% 30.09 in - WSW 12.7 mph - N/A   Clear
5:20 PM 80.6 °F - 48.2 °F 32% 30.09 in - West 13.8 mph - N/A   Clear
5:50 PM 78.8 °F - 48.2 °F 34% 30.09 in - West 11.5 mph - N/A   Clear
6:00 PM 79 °F - 47 °F 22% 30.10 in 37 mi West 11.2 mph - -   Scattered Clouds
6:20 PM 78.8 °F - 48.2 °F 34% 30.09 in - West 10.4 mph - N/A   Clear
6:50 PM 78.8 °F - 48.2 °F 34% 30.09 in - West 10.4 mph - N/A   Clear
7:00 PM 78 °F - 47 °F 23% 30.11 in 37 mi West 11.2 mph - -   Scattered Clouds
7:20 PM 77.0 °F - 48.2 °F 36% 30.09 in - West 9.2 mph - N/A   Clear
7:50 PM 77.0 °F - 50.0 °F 39% 30.09 in - West 9.2 mph - N/A   Clear
8:00 PM 76 °F - 49 °F 27% 30.12 in 37 mi West 8.9 mph - -   Scattered Clouds
8:20 PM 77.0 °F - 50.0 °F 39% 30.09 in - West 9.2 mph - N/A   Clear
8:50 PM 75.2 °F - 50.0 °F 41% 30.12 in - West 6.9 mph - N/A   Clear
9:00 PM 75 °F - 49 °F 28% 30.12 in 37 mi West 6.7 mph - -   Scattered Clouds
9:20 PM 73.4 °F - 50.0 °F 44% 30.12 in - WNW 4.6 mph - N/A   Clear
9:50 PM 71.6 °F - 51.8 °F 50% 30.12 in - NW 3.5 mph - N/A   Clear
10:00 PM 69 °F - 50 °F 40% 30.15 in 37 mi NW 4.5 mph - -   Scattered Clouds
10:20 PM 68.0 °F - 53.6 °F 60% 30.15 in - North 2.3 mph - N/A   Clear
10:50 PM 68.0 °F - 53.6 °F 60% 30.15 in - WNW 4.6 mph - N/A   Clear
11:20 PM 68.0 °F - 53.6 °F 60% 30.15 in - NNW 4.6 mph - N/A   Clear
11:50 PM 66.2 °F - 53.6 °F 64% 30.15 in - North 1.2 mph - N/A   Clear